Location: Unspecified
(49.2170°N, 0.0000°E)
Time: 20:04:01
(UTC+00:00)

Transit 4A - Pass Details

Date: 23 June 2019
Orbit: 862 x 982 km, 66.8° (Epoch: 20 July)

Event Time Altitude Azimuth Distance (km) Brightness Sun altitude
Rises 18:08:55 0° 314° (NW) 3,686 12.2 16.5°
Reaches altitude 10° 18:12:19 10° 297° (WNW) 2,722 12.7 15.9°
Maximum altitude 18:16:25 18° 257° (WSW) 2,160 11.1 15.3°
Drops below altitude 10° 18:20:27 10° 216° (SW) 2,668 10.6 14.7°
Sets 18:23:46 0° 198° (SSW) 3,585 11.0 14.2°
